Weather Roundup
Issued by NWS Springfield, MO

Home | Current Version | Previous Version | Text Only | Print | Product List | Glossary On
Versions: 1 2 3 4 5 6 7 8 9 10 11 12 13 14 15 16 17 18 19 20 21 22 23 24 25 26 27 28 29 30 31 32 33 34 35 36 37 38 39 40 41 42 43 44 45 46 47 48 49 50
000
NZUS99 KSGF 311107
HRRSGF

HOURLY WEATHER
NATIONAL WEATHER SERVICE SPRINGFIELD MO
500 AM CST SAT JAN 31 2015

......SGF CWA......

CITY           SKY/WX    TMP DP  RH WIND       PRES   REMARKS
SPRINGFIELD    CLOUDY    40  20  44 SE9       30.28S WCI  34
JOPLIN         CLOUDY    39  30  70 NE3       30.26S
WEST PLAINS    CLOUDY    34  23  64 CALM      30.32F
ROLLA          CLOUDY    35  20  54 S9        30.28S WCI  28
OSAGE BEACH    CLOUDY    36  19  51 CALM      30.30R
BRANSON        CLOUDY    37  25  60 SE7       30.30S WCI  32

......SURROUNDING SGF CWA......

CITY           SKY/WX    TMP DP  RH WIND       PRES   REMARKS
CHANUTE        CLOUDY    42  37  82 SE10      30.23F
PARSONS        CLOUDY    40  34  79 SE5       30.25F
COFFEYVILLE    CLOUDY    41  31  67 VRB3      30.24F
EMPORIA        CLOUDY    36  35  96 S6        30.22F WCI  31
GROVE OK       CLOUDY    41  30  65 CALM      30.27F
ROGERS AR      CLOUDY    40  27  59 S5        30.27S
SILOAM SPRINGS CLOUDY    39  23  52 E3        30.27R
HARRISON AR    CLOUDY    37  24  59 E5        30.29F WCI  33
NEAR YELLVILLE CLOUDY    36  23  60 E3        30.32S

......KANSAS AND MISSOURI......

CITY           SKY/WX    TMP DP  RH WIND       PRES   REMARKS
KANSAS CTY INT LGT RAIN  33  32  96 S5        30.26F WCI  29
DOWNTOWN KC    LGT RAIN  37  30  75 CALM      30.27F
COLUMBIA       CLOUDY    32  21  64 S6        30.29S WCI  26
SEDALIA        CLOUDY    36  21  54 CALM      30.29F
ST JOSEPH      LGT RAIN  33  30  88 S3        30.26F
ST LOUIS       MOCLDY    32  19  58 CALM      30.33F
SPIRIT OF STL  MOCLDY    27  22  81 CALM      30.33S
KIRKSVILLE     MOCLDY    28  21  75 S5        30.27S WCI  23
WICHITA        CLOUDY    39  24  55 SE6       30.20F WCI  35
TOPEKA         LGT RAIN  35  33  92 E3        30.26F FOG
OLATHE         LGT RAIN  35  29  78 SE6       30.25F WCI  30

......TENNESSEE......

CITY           SKY/WX    TMP DP  RH WIND       PRES   REMARKS
MEMPHIS        CLOUDY    39  21  48 SE5       30.36S
NASHVILLE      PTCLDY    24  20  84 CALM      30.38S

......ARKANSAS.......

CITY           SKY/WX    TMP DP  RH WIND       PRES   REMARKS
FAYETTEVILLE   CLOUDY    40  26  57 W3        30.26F
FT SMITH       CLOUDY    41  29  62 E10       30.29F
LITTLE ROCK    CLOUDY    40  28  62 E7        30.35F

......OKLAHOMA.......

CITY           SKY/WX    TMP DP  RH WIND       PRES   REMARKS
TULSA          CLOUDY    42  27  55 SE6       30.23F
PONCA CITY     CLOUDY    41  25  53 SE5       30.22F
MCALESTER      CLOUDY    46  28  49 CALM      30.24F
OKLAHOMA CITY  CLOUDY    45  28  51 SE12      30.19F

......IOWA............

CITY           SKY/WX    TMP DP  RH WIND       PRES   REMARKS
DES MOINES     CLOUDY    32  24  72 SW9       30.20S WCI  24
QUAD CITIES    FAIR      26  18  71 SW7       30.23F WCI  18

......ILLINOIS........

CITY           SKY/WX    TMP DP  RH WIND       PRES   REMARKS
QUINCY         MOCLDY    28  21  75 SW10      30.27F WCI  19
CHICAGO        MOCLDY    25  18  74 SW8       30.24F WCI  16




USA.gov is the U.S. government's official web portal to all federal, state and local government web resources and services.